#timestamp,LO_Frequency,Hit,StdDev 
1609952415.8,286047000.0,N
1609952435.6,286047002.8,Y
1609952455.4,286047002.5,P
1609952475.3,286047001.2,N
1609952495.1,286046999.1,N
1609952515.9,286046997.3,N
1609952535.7,286046996.5,N
1609952555.5,286046999.6,N
1609952575.4,286046998.7,N
1609952595.2,286046999.0,N
1609952615.0,286046998.3,N
1609952615.9,286046998.3,N
1609952635.8,286047001.0,N
1609952655.6,286047001.1,N
1609952675.5,286046998.8,N
1609952695.3,286046999.4,N
1609952715.1,286046998.9,N
1609952735.9,286047000.7,N
1609952755.7,286047002.0,N
1609952775.5,286047002.8,N
1609952795.4,286046999.7,N
1609952815.2,286047001.0,N
1609952835.1,286046999.8,N
1609952836.0,286046999.8,N
1609952855.8,286047002.8,N
1609952875.6,286047001.5,N
1609952895.5,286047001.9,N
1609952915.9,286047002.2,N
1609952935.7,286047002.6,N
1609952955.6,286047002.1,N
1609952975.4,286047002.2,N
1609952995.2,286047004.1,N
1609953015.1,286047007.8,Y
1609953016.0,286047007.8,P
1609953035.8,286047014.2,P
1609953055.7,286047013.4,N
1609953075.5,286047014.1,N
1609953095.3,286047020.7,Y
1609953115.2,286047010.7,P
1609953135.0,286047005.4,P
1609953135.9,286047005.4,N
1609953155.8,286047001.9,N
1609953175.6,286047002.0,N
1609953195.4,286046999.9,N
1609953215.3,286047000.8,N
1609953235.1,286046999.4,N
1609953255.8,286046997.8,N
1609953275.7,286046998.0,N
1609953295.5,286046995.2,N
1609953315.4,286046993.6,N
1609953335.2,286046991.7,N
1609953355.0,286046991.8,N
1609953355.9,286046991.8,N
1609953375.8,286046993.0,N
1609953395.6,286046990.3,N
1609953415.4,286046989.0,N
1609953435.3,286046986.9,N
1609953455.1,286046987.1,N
1609953475.9,286046986.1,N
1609953495.7,286046987.5,N
1609953515.5,286046986.0,N
1609953535.4,286046986.0,N
1609953555.2,286046984.2,N
1609953575.1,286046982.3,N
1609953576.0,286046982.3,N
1609953595.8,286046983.1,N
1609953615.6,286046983.3,N
1609953635.5,286046980.6,N
1609953655.3,286046982.9,N
1609953675.1,286046980.6,N
1609953695.9,286046980.6,N
1609953715.7,286046981.8,N
1609953735.6,286046981.7,N
1609953755.4,286046980.7,Y
1609953775.2,286046994.2,P
1609953795.1,286046994.6,N
1609953796.0,286046994.6,N
1609953815.8,286046991.8,Y
1609953835.6,286046996.5,P
1609953855.5,286046999.2,N
1609953875.3,286046999.5,N
1609953895.2,286046999.5,N
1609953915.9,286046996.8,N
1609953935.7,286046999.2,N
1609953955.6,286046998.8,N
1609953975.4,286046999.4,N
1609953995.2,286046998.9,N
1609954015.1,286046998.7,N
1609954016.0,286046998.7,N
1609954035.8,286046998.5,N
1609954055.7,286046998.5,N
1609954075.5,286046996.6,N
1609954095.3,286046997.8,N
1609954115.2,286046999.0,N
1609954135.0,286047001.2,N
1609954135.9,286047001.2,N
1609954155.7,286046999.3,N
1609954175.6,286046997.8,N
1609954195.4,286046997.6,N
1609954215.3,286046993.5,Y
1609954235.1,286046996.0,P
1609954255.8,286046994.1,P
1609954275.7,286046993.7,P
1609954295.5,286046993.7,Y
1609954315.4,286047000.5,P
1609954335.2,286047002.6,N
1609954355.0,286047001.5,N
1609954355.9,286047001.5,N
1609954375.8,286047002.6,N
1609954395.6,286046999.7,N
1609954415.4,286047002.7,N
1609954435.3,286047001.3,N
1609954455.1,286047004.1,N
1609954475.9,286047001.6,N
1609954495.7,286047004.4,N
1609954515.5,286047002.5,N
1609954535.4,286047002.5,N
1609954555.2,286047002.5,N
1609954575.0,286047002.8,N
1609954575.9,286047002.8,N
1609954595.8,286047000.6,N
1609954615.6,286046998.4,N
1609954635.5,286046999.1,N
1609954655.3,286046998.8,N
1609954675.1,286046999.4,N
1609954695.9,286046999.3,N
1609954715.7,286047001.0,N
1609954735.5,286047001.2,N
1609954755.4,286047000.6,N
1609954775.2,286047000.0,N
1609954795.0,286047000.2,N
1609954796.0,286047000.2,N
1609954815.8,286047002.8,N
1609954835.6,286047002.0,N
1609954855.5,286047004.4,N
1609954875.3,286047004.0,N
1609954895.1,286047003.9,N
1609954915.9,286047003.5,N
1609954935.7,286047004.3,N
1609954955.5,286047003.5,N
1609954975.4,286047005.8,Y
1609954995.2,286047003.8,P
1609955015.1,286047004.2,P
1609955016.0,286047004.2,P
1609955035.8,286046999.9,N
1609955055.6,286047000.5,N
1609955105.5,286046998.5,E
1609955115.4,286047000.8,N
1609955135.2,286047001.7,P
1609955155.1,286047003.2,P
1609955156.0,286047003.2,Y
1609955175.8,286047002.5,P
1609955195.7,286047001.5,P
1609955215.5,286047001.4,P
1609955235.3,286047003.5,Y
1609955255.2,286047001.9,P
1609955275.0,286047000.2,P
1609955275.9,286047000.2,N
1609955295.8,286047000.1,N
1609955315.6,286047000.4,N
1609955335.4,286047000.0,N
1609955355.3,286047002.8,Y
1609955375.1,286047002.2,P
1609955395.9,286047002.3,N
1609955415.7,286047001.3,N
1609955435.5,286047001.5,N
1609955455.4,286047002.1,Y
1609955475.2,286047002.6,P
1609955495.0,286047001.5,N
1609955495.9,286047001.5,N
1609955515.8,286047004.0,Y
1609955535.6,286047000.3,P
1609955555.5,286047000.6,N
1609955575.3,286046998.1,N
1609955595.1,286046999.3,N
1609955615.9,286047000.8,N
1609955635.7,286046998.8,N
1609955655.5,286046997.1,N
1609955675.4,286046998.9,N
1609955695.2,286046998.6,N
1609955715.1,286046998.4,N
1609955716.0,286046998.4,N
1609955735.8,286047000.7,N
1609955755.6,286047001.2,N
1609955775.5,286047001.0,N
1609955795.3,286046998.2,N
1609955815.1,286047001.0,N
1609955835.9,286047000.2,N
1609955855.7,286047001.0,N
1609955875.6,286047000.4,N
1609955895.4,286046999.5,N
1609955915.2,286046999.3,N
1609955935.1,286046999.1,N
1609955936.0,286046999.1,N
1609955955.8,286046999.3,N
1609955975.6,286046999.4,N
1609955995.5,286046999.1,N
